Regional Weather Roundup
Issued by NWS Newport/Morehead, NC

Current Version | Previous Version | Graphics & Text | Print | Product List | Glossary On
Versions: 1 2 3 4 5 6 7 8 9 10 11 12 13 14 15 16 17 18 19 20 21 22 23 24 25 26 27 28 29 30 31 32 33 34 35 36 37 38 39 40 41 42 43 44 45 46 47 48 49 50
000 ASUS42 KMHX 250725 RWRMHX WEATHER ROUNDUP FOR EASTERN NORTH CAROLINA NATIONAL WEATHER SERVICE NEWPORT/MOREHEAD CITY NC 300 AM EDT MON JUL 25 2016 NOTE: "FAIR" INDICATES FEW OR NO CLOUDS BELOW 12,000 FEET WITH NO SIGNIFICANT WEATHER AND/OR OBSTRUCTIONS TO VISIBILITY NCZ015>017-031-032-045>047-102-103-250800- NORTH COAST CITY SKY/WX TMP DP RH WIND PRES REMARKS EDENTON CLEAR 82 82 100 SW12 30.02S ELIZABETH CITY PTCLDY 79 76 90 SW9 30.01S KITTY HAWK SUNNY 81 76 86 SW8 30.01S MANTEO N/A 80 79 98 SW14 30.03S $$ NCZ045>047-081-094-103-104-250800- CENTRAL COAST CITY SKY/WX TMP DP RH WIND PRES REMARKS FRISCO CLEAR 82 77 84 SW10 30.04F $$ NCZ095-097-098-100-101-250800- SOUTHERN COAST CITY SKY/WX TMP DP RH WIND PRES REMARKS BEAUFORT CLEAR 82 77 84 SW12 30.05S CEDAR ISLAND NOT AVBL JACKSONVILLE CLEAR 78 75 90 SW3 30.04F PINEY ISLAND NOT AVBL WILMINGTON CLEAR 78 75 90 S3 30.05S $$ NCZ011>013-027>030-043-044-078>080-089-090>093-098-250800- COASTAL PLAIN CITY SKY/WX TMP DP RH WIND PRES REMARKS AHOSKIE CLEAR 76 75 97 CALM 30.01S CLINTON CLEAR 78 78 100 CALM 30.04F ELIZABETHTOWN CLEAR 79 78 98 S5 30.04F GOLDSBORO CLEAR 79 79 100 S3 30.01F GREENVILLE CLEAR 79 77 94 SW8 30.04S HAVELOCK CLEAR 78 75 90 S5 30.05F KENANSVILLE NOT AVBL KINSTON CLEAR 78 76 93 S7 30.04S NEW BERN CLEAR 78 76 93 S6 30.05F RICHLANDS PTCLDY 76 75 97 S6 30.05S ROCKY MOUNT CLEAR 78 77 96 S8 30.01F WASHINGTON CLEAR 77 74 92 S7 30.03S WHITEVILLE PTCLDY 78 76 94 CALM 30.05S $$ AMZ130-135-150-152-154-156-158-170-250-252-270-ANZ085-086-088-633-658-670-250800- MARINE OBSERVATIONS STATION/POSITION TIME TEMP WIND PRES WAVE SWELL AIR SEA DIR/SP/G HT/PER HT/PER (UTC) (F) (DEG/KT/KT) (MB) (FT/S) (FT/S) CHESAPEAKE LIGHT NOT AVBL 64 E VA BEACH 0550 82 81 220/ 16/ 17 1015.3 3/ 5 2/ 8 DUCK 0700 82 61 230/ 16/ 20 1015.7 2 E DUCK 0711 66 N/A 1/ 8 OREGON INLET 0700 83 86 220/ 16/ 20 1016.5 13E OREGON INLT 0700 82 N/A 2/ 4 2/ 9 HATTERAS CG 0700 81 84 220/ 6/ 9 1017.0 DIAMOND BUOY 0650 84 85 230/ 14/ 17 1017.3 3/ 4 2/ 8 CAPE LOOKOUT 0700 83 220/ 9/ 12 1017.2 BEAUFORT LAB 0700 83 84 230/ 5/ 8 1016.8 30 SE NEW RVR IN 0608 84 85 220/ 12/ 16 1017.6 30 SE NEW RVR IN 0655 85 N/A 3/ 4 27 SE WRIGHTSVLE 0608 84 85 220/ 12/ 14 1017.9 5 SE WRIGHTSVLE NOT AVBL 225 S CAPE HAT 0650 84 84 200/ 8/ 10 1018.8 2/ 8 2/ 8 41 SE CHARLESTON 0650 85 86 200/ 12/ 14 1017.1 2/ 9 2/ 9 $$

USA.gov is the U.S. government's official web portal to all federal, state and local government web resources and services.